Flag for Germany Weather past 2 weeks in Koblenz, Rhineland-Palatinate, Germany

Now
66 °F

Mild.


Feels Like: 66 °F
Forecast: 59 / 80 °F
Wind: 7 mph from Northeast

Location: Buechel

Current Time: Jul 24, 2014 at 12:32:27 AM

Latest Report: Jul 23, 2014 at 11:20 PM


Visibility: 6 mi

Pressure: 30.04 "Hg

Humidity: 68%

Dew point: 55 °F

Location of KoblenzLocation

Historic Weather in Koblenz — Graph

°F

Koblenz temperature yesterday

Maximum temperature yesterday: 81 °F (at 3:20 PM)
Minimum temperature yesterday: 64 °F (at 4:20 AM)
Average temperature yesterday: 72 °F

Past Weeks' High & Low Weather Summary

 TemperatureHumidityPressure
High86 °F (Jul 18, 4:20 PM)100% (Jul 9, 1:20 AM)30.21 "Hg (Jul 9, 1:20 AM)
Low50 °F (Jul 9, 12:20 AM)29% (Jul 18, 5:20 PM)29.71 "Hg (Jul 9, 4:20 PM)
Average68 °F69%30.01 "Hg
* Reported Jul 8 11:20 PM — Jul 23 11:20 PM, Koblenz, Weather by CustomWeather, © 2014

Note: Actual official high and low records may vary slightly from our data, if they occured in-between our weather recording intervals... More about our weather records

Advertising

Koblenz weather history for previous 24 hours

 ConditionsComfort  
Time TempWeatherWind HumidityBarometerVisibility
11:20 PM
Jul 23
66 °FMild.7 mph68%30.04 "Hg6 mi
10:20 PM68 °FMild.8 mph69%30.04 "Hg6 mi
9:20 PM72 °FMild.8 mph57%30.01 "HgN/A
8:20 PM75 °FMild.10 mph50%30.01 "HgN/A
7:20 PM77 °FWarm.7 mph42%30.01 "HgN/A
6:20 PM77 °FPleasantly warm.8 mph39%30.01 "HgN/A
5:20 PM77 °FPleasantly warm.14 mph39%30.04 "HgN/A
4:20 PM79 °FBroken clouds.13 mph37%30.04 "HgN/A
3:20 PM81 °FBroken clouds.14 mph34%30.04 "HgN/A
2:20 PM79 °FBroken clouds.13 mph37%30.04 "HgN/A
1:20 PM79 °FPartly sunny.13 mph42%30.07 "HgN/A
12:20 PM75 °FPartly sunny.12 mph50%30.07 "HgN/A
11:20 AM73 °FPartly sunny.1 mph61%N/AN/A
10:20 AM72 °FPartly sunny.9 mph65%30.09 "HgN/A
9:20 AM70 °FPartly sunny.10 mph69%30.09 "HgN/A
7:20 AM66 °FPartly sunny.10 mph73%30.07 "HgN/A
6:20 AM64 °FPassing clouds.9 mph78%30.07 "HgN/A
5:20 AM64 °FPassing clouds.9 mph78%30.07 "HgN/A
4:20 AM64 °FPassing clouds.8 mph83%30.09 "HgN/A
3:20 AM66 °FMild.7 mph78%30.09 "Hg5 mi
2:20 AM66 °FMild.8 mph83%30.09 "Hg5 mi
1:20 AM66 °FMild.5 mph83%30.09 "Hg5 mi
Weather by CustomWeather, © 2014

See weather overviewHow to use our weather pages